TimeBST,TemperatureF,Dew PointF,Humidity,Sea Level PressureIn,VisibilityMPH,Wind Direction,Wind SpeedMPH,Gust SpeedMPH,PrecipitationIn,Events,Conditions,WindDirDegrees,DateUTC
12:20 AM,55.4,51.8,88,30.04,6.2,SSW,6.9,-,N/A,,Scattered Clouds,200,2013-09-08 23:20:00
12:50 AM,55.4,51.8,88,30.01,6.2,SSW,8.1,-,N/A,,Scattered Clouds,210,2013-09-08 23:50:00
1:20 AM,55.4,51.8,88,30.01,6.2,South,5.8,-,N/A,,Scattered Clouds,190,2013-09-09 00:20:00
1:50 AM,55.4,51.8,88,30.01,6.2,South,4.6,-,N/A,,Scattered Clouds,170,2013-09-09 00:50:00
2:20 AM,55.4,51.8,88,29.98,6.2,South,8.1,-,N/A,,Scattered Clouds,190,2013-09-09 01:20:00
2:50 AM,55.4,53.6,94,29.98,6.2,South,9.2,-,N/A,,Scattered Clouds,180,2013-09-09 01:50:00
3:20 AM,55.4,53.6,94,29.98,4.3,South,8.1,-,N/A,Rain,Light Rain,180,2013-09-09 02:20:00
3:50 AM,56,53,88,,,Calm,Calm,,,,,,2013-09-09 02:50:00
5:50 AM,55.4,53.6,94,29.95,6.2,SSE,4.6,-,N/A,,Drizzle,150,2013-09-09 04:50:00
6:20 AM,55.4,55.4,100,29.92,5.6,SE,5.8,-,N/A,Rain,Light Rain,140,2013-09-09 05:20:00
6:50 AM,56,55,95,,,Calm,Calm,,,,,,2013-09-09 05:50:00
6:50 AM,55.4,55.4,100,29.92,6.2,ESE,5.8,-,N/A,,Light Drizzle,110,2013-09-09 05:50:00
7:20 AM,55.4,55.4,100,29.92,6.2,East,4.6,-,N/A,,Mostly Cloudy,100,2013-09-09 06:20:00
7:50 AM,57.2,55.4,94,29.95,6.2,Variable,2.3,-,N/A,,Mostly Cloudy,0,2013-09-09 06:50:00
8:20 AM,57.2,55.4,94,29.95,3.1,Variable,2.3,-,N/A,,Light Drizzle,0,2013-09-09 07:20:00
8:50 AM,57.2,57.2,100,29.95,2.5,NNE,4.6,-,N/A,Rain,Light Rain,20,2013-09-09 07:50:00
9:20 AM,57.2,57.2,100,29.95,2.5,NNE,4.6,-,N/A,,Light Drizzle,20,2013-09-09 08:20:00
9:50 AM,58,57,94,,,Calm,Calm,,,,,,2013-09-09 08:50:00
9:50 AM,57.2,57.2,100,29.95,5.6,North,5.8,-,N/A,,Mostly Cloudy,360,2013-09-09 08:50:00
10:20 AM,59.0,57.2,94,29.95,6.2,Variable,2.3,-,N/A,,Scattered Clouds,0,2013-09-09 09:20:00
10:50 AM,60.8,59.0,94,29.98,6.2,WNW,5.8,-,N/A,,Scattered Clouds,300,2013-09-09 09:50:00
11:20 AM,62.6,57.2,82,29.98,6.2,NNW,6.9,-,N/A,,Scattered Clouds,330,2013-09-09 10:20:00
11:50 AM,62.6,57.2,82,29.98,6.2,NNW,6.9,-,N/A,,Scattered Clouds,330,2013-09-09 10:50:00
12:20 PM,64.4,57.2,77,29.98,6.2,NW,10.4,-,N/A,,Scattered Clouds,310,2013-09-09 11:20:00
12:50 PM,66,57,64,,,Calm,Calm,,,,,,2013-09-09 11:50:00
12:50 PM,68.0,55.4,64,29.98,6.2,NW,16.1,-,N/A,,Scattered Clouds,320,2013-09-09 11:50:00
1:20 PM,66.2,55.4,68,29.98,6.2,NW,15.0,-,N/A,,Scattered Clouds,320,2013-09-09 12:20:00
1:50 PM,68.0,53.6,60,29.98,6.2,NW,16.1,-,N/A,,Scattered Clouds,320,2013-09-09 12:50:00
2:20 PM,68.0,51.8,56,29.98,6.2,NNW,13.8,-,N/A,,Scattered Clouds,330,2013-09-09 13:20:00
2:50 PM,66.2,51.8,60,29.98,6.2,NNW,16.1,-,N/A,,Partly Cloudy,330,2013-09-09 13:50:00
3:20 PM,66.2,50.0,56,30.01,6.2,NNW,15.0,-,N/A,,Partly Cloudy,340,2013-09-09 14:20:00
3:50 PM,64,48,45,,,Calm,Calm,,,,,,2013-09-09 14:50:00
3:50 PM,66.2,50.0,56,30.01,6.2,NNW,16.1,-,N/A,,Scattered Clouds,330,2013-09-09 14:50:00
4:20 PM,66.2,48.2,52,30.01,6.2,NNW,17.3,-,N/A,,Partly Cloudy,340,2013-09-09 15:20:00
4:50 PM,66.2,48.2,52,30.01,6.2,NW,17.3,-,N/A,,Scattered Clouds,320,2013-09-09 15:50:00
5:20 PM,66.2,48.2,52,30.04,6.2,NW,17.3,-,N/A,,Scattered Clouds,310,2013-09-09 16:20:00
5:50 PM,64.4,50.0,59,30.04,6.2,NNW,17.3,-,N/A,,Scattered Clouds,340,2013-09-09 16:50:00
6:20 PM,62.6,48.2,59,30.04,6.2,NW,18.4,-,N/A,,Partly Cloudy,310,2013-09-09 17:20:00
6:50 PM,60,47,53,,,Calm,Calm,,,,,,2013-09-09 17:50:00
6:50 PM,60.8,48.2,63,30.06,6.2,NW,18.4,-,N/A,,Partly Cloudy,320,2013-09-09 17:50:00
7:50 PM,57.2,48.2,72,30.06,-9999.0,NW,13.8,-,N/A,,Clear,310,2013-09-09 18:50:00
8:20 PM,55.4,48.2,77,30.09,-9999.0,NW,9.2,-,N/A,,Clear,310,2013-09-09 19:20:00
8:50 PM,55.4,48.2,77,30.09,-9999.0,Variable,3.5,-,N/A,,Clear,0,2013-09-09 19:50:00
9:20 PM,53.6,48.2,82,30.12,-9999.0,Variable,2.3,-,N/A,,Clear,0,2013-09-09 20:20:00
9:50 PM,51,46,78,,,Calm,Calm,,,,,,2013-09-09 20:50:00
9:50 PM,53.6,48.2,82,30.12,-9999.0,Variable,2.3,-,N/A,,Clear,0,2013-09-09 20:50:00
10:20 PM,51.8,48.2,88,30.12,-9999.0,WNW,6.9,-,N/A,,Clear,300,2013-09-09 21:20:00
10:50 PM,51.8,48.2,88,30.12,-9999.0,WNW,6.9,-,N/A,,Clear,300,2013-09-09 21:50:00